Weather History for Port Hope, MI

Change the Weather History Date:

Tuesday, November 6, 2012

  Actual Average Record
Temperature  
Mean Temperature 36 °F -  
Max Temperature 39 °F 47 °F 64 °F (2008)
Min Temperature 33 °F 36 °F 33 °F (2003)
Degree Days  
Heating Degree Days 29    
Moisture  
Dew Point 25 °F    
Average Humidity 64    
Maximum Humidity 75    
Minimum Humidity 53    
Precipitation  
Precipitation 0.00 in - - ()
Sea Level Pressure  
Sea Level Pressure 30.10 in    
Wind  
Wind Speed 3 mph (South)    
Max Wind Speed 13 mph    
Max Gust Speed -    
Averages and records for this station are not official NWS values.
T = Trace of Precipitation, MM = Missing Value Source: NWS Daily Summary

Daily Weather History Graph

Daily Weather History Graph

Search for Another Location

Airport:

Trip Planner

Search our weather history database for the weather conditions in past years. The results will help you decide how hot, cold, wet, or windy it might be!

Date:

Astronomy

Nov. 06, 2012 Rise Set
Actual Time 7:14 AM EST 5:14 PM EST
Civil Twilight 6:44 AM EST 5:44 PM EST
Nautical Twilight 6:10 AM EST 6:19 PM EST
Astronomical Twilight 5:36 AM EST 6:52 PM EST
Moon 11:54 PM EST (11/6) 1:04 PM EST (11/6)
Length of Visible Light 11h 00m
Length of Day
9h 59m
Waning Gibbous, 53% of the Moon is Illuminated
Nov 6
Waning Gibbous
Nov 6
Last Quarter
Nov 13
New
Nov 20
First Quarter
Nov 28
Full

Hourly Weather History & Observations

Time (EST) Temp. Windchill Dew Point Humidity Pressure Visibility Wind Dir Wind Speed Gust Speed Precip Events Conditions
12:51 AM 35.1 °F 32.2 °F 25.0 °F 67% 30.18 in - SW 3.5 mph - N/A   Unknown
1:51 AM 34.0 °F - 24.1 °F 67% 30.17 in - Calm Calm - N/A   Unknown
2:51 AM 34.0 °F - 26.1 °F 73% 30.17 in - Calm Calm - N/A   Unknown
3:51 AM 33.1 °F - 25.0 °F 72% 30.14 in - Calm Calm - N/A   Unknown
4:51 AM 33.1 °F - 26.1 °F 75% 30.14 in - Calm Calm - N/A   Unknown
5:51 AM 34.0 °F - 25.0 °F 70% 30.12 in - Calm Calm - N/A   Unknown
6:51 AM 34.0 °F 31.0 °F 25.0 °F 70% 30.12 in - SW 3.5 mph - N/A   Unknown
7:51 AM 34.0 °F 29.8 °F 26.1 °F 73% 30.13 in - SSW 4.6 mph - N/A   Unknown
8:51 AM 36.0 °F 32.1 °F 25.0 °F 64% 30.13 in - South 4.6 mph - N/A   Unknown
9:51 AM 36.0 °F 33.3 °F 28.0 °F 73% 30.12 in - South 3.5 mph - N/A   Unknown
10:51 AM 37.9 °F 34.4 °F 26.1 °F 62% 30.12 in - Variable 4.6 mph - N/A   Unknown
11:51 AM 37.9 °F 34.4 °F 25.0 °F 60% 30.11 in - SSE 4.6 mph - N/A   Unknown
12:51 PM 37.9 °F 34.4 °F 21.9 °F 53% 30.09 in - SE 4.6 mph - N/A   Unknown
1:51 PM 39.0 °F 36.8 °F 24.1 °F 55% 30.07 in - SSE 3.5 mph - N/A   Unknown
2:51 PM 39.0 °F 34.0 °F 24.1 °F 55% 30.06 in - SE 6.9 mph - N/A   Unknown
3:51 PM 37.9 °F - 23.0 °F 55% 30.06 in - Calm Calm - N/A   Unknown
4:51 PM 37.9 °F - 25.0 °F 60% 30.05 in - Calm Calm - N/A   Unknown
5:51 PM 37.9 °F 35.5 °F 24.1 °F 57% 30.05 in - Variable 3.5 mph - N/A   Unknown
6:51 PM 37.9 °F - 24.1 °F 57% 30.06 in - Calm Calm - N/A   Unknown
7:51 PM 37.0 °F - 25.0 °F 62% 30.06 in - Calm Calm - N/A   Unknown
8:51 PM 37.9 °F - 26.1 °F 62% 30.06 in - Calm Calm - N/A   Unknown
9:51 PM 37.9 °F 35.5 °F 28.0 °F 68% 30.06 in - SSE 3.5 mph - N/A   Unknown
10:51 PM 39.0 °F 32.8 °F 28.0 °F 65% 30.06 in - SSE 9.2 mph - N/A   Unknown
11:51 PM 37.9 °F 30.0 °F 27.0 °F 65% 30.06 in - SE 12.7 mph - N/A   Unknown